FW7576 Weather Reports


Display with metric or nautical units.
time (UTC)temp
F
wind
direction
speed
MPH
gust
MPH
rain 1hr
in
rain 24hr
in
rain mn
in
humidity
%
barometer
mb
20260504081548 49 218 1.0 3.0 0.00 0.00 0.00 79 1003.1
20260504044535 54 247 2.0 2.0 0.00 0.00 0.00 66 1004.4
20260504043040 54 221 2.0 3.0 0.00 0.00 0.00 66 1004.3
20260504041540 55 221 1.0 3.0 0.00 0.00 0.00 64 1004.4
20260504040041 55 226 2.0 3.0 0.00 0.00 0.00 63 1004.5
20260504034538 55 225 1.0 2.0 0.00 0.00 0.00 64 1004.6
20260504033036 55 219 1.0 2.0 0.00 0.00 0.00 64 1004.8
20260504031535 55 0 0.0 1.0 0.00 0.00 0.00 65 1004.8
20260504030035 55 0 0.0 1.0 0.00 0.00 0.00 64 1004.9
20260504024534 56 219 0.0 1.0 0.00 0.00 0.00 62 1004.8
20260504023040 57 0 0.0 1.0 0.00 0.00 0.00 59 1004.8
20260504021538 58 0 0.0 0.0 0.00 0.00 0.00 58 1004.8
20260504020053 59 0 0.0 1.0 0.00 0.00 0.00 56 1004.7
20260504014553 60 0 0.0 0.0 0.00 0.00 0.00 53 1004.5
20260504013044 62 0 0.0 1.0 0.00 0.00 0.00 50 1004.7
20260504011540 63 0 0.0 2.0 0.00 0.00 0.00 47 1004.6
20260504010044 65 263 2.0 8.0 0.00 0.00 0.00 45 1004.4
20260504004555 65 257 4.0 11.0 0.00 0.00 0.00 44 1004.4
20260504003037 66 242 5.0 10.0 0.00 0.00 0.00 43 1004.3
20260504001550 67 208 5.0 10.0 0.00 0.00 0.00 43 1004.2
20260504000035 67 285 6.0 17.0 0.00 0.00 0.00 42 1004.2
20260503234540 67 292 6.0 16.0 0.00 0.00 0.00 42 1004.2
20260503233041 67 228 8.0 15.0 0.00 0.00 0.00 41 1004.2
20260503231536 67 266 7.0 18.0 0.00 0.00 0.00 42 1004.3
20260503230040 67 241 8.0 23.0 0.00 0.00 0.00 42 1004.5
20260503224536 67 207 7.0 17.0 0.00 0.00 0.00 42 1004.4
20260503223040 67 238 10.0 19.0 0.00 0.00 0.00 42 1004.6
20260503221538 67 256 9.0 19.0 0.00 0.00 0.00 42 1004.8
20260503220045 67 257 7.0 20.0 0.00 0.00 0.00 43 1004.7
20260503214535 66 240 10.0 24.0 0.00 0.00 0.00 43 1004.9
20260503213035 66 246 11.0 22.0 0.00 0.00 0.00 42 1005.1
20260503211541 66 240 13.0 24.0 0.00 0.00 0.00 42 1005.0
20260503210039 65 241 12.0 22.0 0.00 0.00 0.00 44 1005.2
20260503204539 65 229 10.0 21.0 0.00 0.00 0.00 48 1005.6
20260503203052 63 212 12.0 23.0 0.00 0.00 0.00 50 1006.0
20260503201538 64 218 11.0 24.0 0.00 0.00 0.00 48 1006.2
20260503200035 63 238 12.0 27.0 0.00 0.00 0.00 47 1006.7
20260503194541 64 203 12.0 25.0 0.00 0.00 0.00 45 1006.5
20260503193038 64 214 16.0 27.0 0.00 0.00 0.00 42 1006.6
20260503191545 64 235 10.0 30.0 0.00 0.00 0.00 42 1006.7
20260503190043 64 260 12.0 23.0 0.00 0.00 0.00 41 1007.0
20260503184536 63 277 17.0 28.0 0.00 0.00 0.00 43 1007.0
20260503183036 62 217 12.0 23.0 0.00 0.00 0.00 46 1007.3
20260503181546 61 242 13.0 25.0 0.00 0.00 0.00 50 1007.6
20260503180039 60 234 11.0 17.0 0.00 0.00 0.00 53 1007.9
20260503174539 59 184 11.0 21.0 0.00 0.00 0.00 54 1008.0
20260503173037 58 257 9.0 25.0 0.00 0.00 0.00 55 1008.5
20260503171536 56 204 9.0 19.0 0.00 0.00 0.00 59 1008.8